sat.trackr.live / text

‹ back to catalog

STARLINK-37189

NORAD 68603 · 2026-073B

PAYLOAD ACTIVE UNKNOWN

§ Identity

Operator
Country
US
Launch date
2026-04-07
Launch site
AFWTR
Launch vehicle
Mass (kg)
RCS (m²)

Purposes: comms

External: N2YO · Heavens-Above · Gunter

§ Orbital elements

Epoch: 2026-09-19T22:53:28.940352Z

Period
93.91 min
Inclination
97.2856°
Eccentricity
0.0000863
Mean motion
15.33401651 rev/d
Perigee alt
465.1 km
Apogee alt
466.3 km
Semi-major
6,843.8 km
B*
3.7840e-4
RAAN
100.9260°
Arg perigee
131.7179°
Mean anomaly
228.4138°
Rev number
2,565

§ Raw data

STARLINK-371891 68603U 26073B   26262.95380718  .00012144  00000+0  37840-3 0  99962 68603  97.2856 100.9260 0000863 131.7179 228.4138 15.33401651 25651

JSON: /api/v1/satellites/68603 · /tle

For live sub-satellite position, see the globe view (requires WebGL).

§ Visibility from observer

Set your observer location to see the next 7 days of passes ≥ 10°. The values pass through the URL so the page stays shareable.

No JS? Fill the form by hand. The geolocation button needs JavaScript.